User: anonymous   Login
Location: Caltech
(34.1382°N, 118.1253°W)
Time: 00:28:15
(UTC-08:00)
Language:

TMSAT-1 - Orbit

View from above orbital plane
View from above orbital plane
View from above satellite
View from above satellite

Ground track
Ground track

The orbit data is extracted from the following two-line orbital elements,

1 25396U 98043C   17019.87655493 +.00000016 +00000-0 +25446-4 0  9996
2 25396 098.5679 327.3833 0003510 052.8015 307.3484 14.24425168962834
Epoch (UTC): 19 January 2017 21:02:14
Eccentricity: 0.0003510
inclination: 98.5679°
perigee height: 808 km
apogee height: 813 km
right ascension of ascending node: 327.3833°
argument of perigee: 52.8015°
revolutions per day: 14.24425168
mean anomaly at epoch: 307.3484°
orbit number at epoch: 96283

The dashed part of the orbit path shows where the satellite is in the earth's shadow,  

DLR